FW2020 Weather Reports


time (UTC)temp
C
wind
direction
speed
KPH
gust
KPH
rain 1hr
cm
rain 24hr
cm
rain mn
cm
humidity
%
barometer
mb
20260508093237 5 113 1.6 3.2 0.00 0.15 0.00 66 1011.2
20260508092226 5 180 1.6 3.2 0.00 0.15 0.00 67 1011.2
20260508091229 5 0.0 0.0 0.00 0.15 0.00 70 1011.2
20260508090231 5 0.0 0.0 0.00 0.18 0.00 68 1010.9
20260508085215 5 0.0 3.2 0.00 0.18 0.00 67 1010.9
20260508084238 5 0.0 0.0 0.00 0.20 0.00 67 1011.2
20260508083220 5 248 3.2 3.2 0.00 0.20 0.00 67 1011.0
20260508082223 -17 7 3.2 3.2 0.00 0.20 0.00 1011.0
20260508081245 4 293 1.6 3.2 0.00 0.23 0.00 68 1010.9
20260508080227 4 0.0 0.0 0.00 0.28 0.00 71 1010.5
20260508075231 4 0.0 0.0 0.00 0.28 0.00 72 1010.4
20260508074252 4 1.6 3.2 0.00 0.38 0.00 69 1010.4
20260508073216 4 0.0 0.0 0.00 0.56 0.00 66 1010.0
20260508072219 5 0.0 0.0 0.00 0.81 0.00 65 1010.0
20260508071223 5 0.0 0.0 0.00 0.84 0.00 66 1009.8
20260508070306 5 270 3.2 4.8 0.00 0.84 0.00 68 1009.8
20260508065221 5 0.0 1.6 0.00 0.84 0.00 65 1009.7
20260508064217 5 113 3.2 3.2 0.00 0.84 0.00 67 1009.7
20260508063233 5 155 3.2 3.2 0.00 0.84 0.00 68 1009.5
20260508062216 5 0.0 3.2 0.00 0.84 0.00 67 1009.5
20260508061240 6 293 1.6 3.2 0.00 0.84 0.00 65 1009.4
20260508060222 6 180 3.2 4.8 0.00 0.84 0.00 64 1009.4
20260508055224 6 23 3.2 3.2 0.00 0.84 0.00 63 1009.5
20260508054246 6 293 1.6 3.2 0.00 0.84 0.00 61 1009.5
20260508053229 7 0.0 0.0 0.00 0.84 0.00 59 1009.5
20260508052233 7 277 4.8 6.4 0.00 0.84 0.00 58 1009.5
20260508051216 7 3 4.8 6.4 0.00 0.84 0.00 58 1009.6
20260508050219 7 23 4.8 4.8 0.00 0.84 0.00 57 1009.7
20260508045243 8 270 4.8 4.8 0.00 0.84 0.00 56 1009.8
20260508044224 8 315 4.8 6.4 0.00 0.84 0.00 55 1009.9
20260508043226 8 293 6.4 8.0 0.00 0.84 0.00 56 1009.8
20260508042229 8 45 1.6 3.2 0.00 0.84 0.00 56 1009.8
20260508041225 8 113 3.2 4.8 0.00 0.84 0.00 57 1009.9
20260508040236 8 315 3.2 3.2 0.00 0.84 0.00 58 1009.9
20260508035219 7 45 4.8 6.4 0.00 0.84 0.84 58 1010.0
20260508034215 -17 264 3.2 4.8 0.00 0.84 0.84 1009.9
20260508033225 7 338 1.6 3.2 0.00 0.84 0.84 59 1010.0
20260508032226 7 315 3.2 4.8 0.00 0.84 0.84 61 1010.0
20260508031228 7 248 3.2 6.4 0.00 0.84 0.84 65 1009.9
20260508030230 6 0.0 0.0 0.00 0.84 0.84 70 1010.1
20260508025235 6 0.0 0.0 0.00 0.84 0.84 67 1010.2
20260508024217 6 0.0 0.0 0.00 0.84 0.84 65 1010.4
20260508023220 7 0.0 0.0 0.00 0.84 0.84 63 1010.2
20260508022222 7 0.0 0.0 0.00 0.84 0.84 60 1010.2
20260508021226 7 225 1.6 3.2 0.00 0.84 0.84 61 1010.3
20260508020228 7 0.0 0.0 0.00 0.84 0.84 63 1010.3
20260508015229 7 293 3.2 3.2 0.00 0.84 0.84 64 1010.4
20260508014231 7 0.0 0.0 0.00 0.84 0.84 63 1010.1
20260508013216 8 0.0 0.0 0.00 0.84 0.84 60 1010.1
20260508012219 8 0.0 0.0 0.00 0.84 0.84 58 1010.1
20260508011221 8 0.0 0.0 0.00 0.84 0.84 57 1010.0
20260508010219 9 315 1.6 3.2 0.00 0.84 0.84 54 1009.8
20260508005227 10 0.0 0.0 0.00 0.84 0.84 50 1009.6
20260508004249 10 0.0 0.0 0.00 0.84 0.84 49 1009.3
20260508003313 11 13 3.2 4.8 0.00 0.84 0.84 45 1009.1
20260508002237 11 270 4.8 6.4 0.00 0.84 0.84 42 1009.1
20260508001219 12 295 4.8 4.8 0.00 0.84 0.84 40
20260508000223 -17 274 1.6 3.2 0.00 0.84 0.84 1008.7
20260507235224 12 66 4.8 6.4 0.00 0.84 0.84 39 1008.5
20260507234226 13 297 3.2 3.2 0.00 0.84 0.84 40 1008.5
20260507233230 13 23 4.8 4.8 0.00 0.84 0.84 38 1008.3
20260507232232 15 113 3.2 3.2 0.00 0.84 0.84 36 1008.3
20260507231216 15 247 4.8 6.4 0.00 0.84 0.84 34 1008.3
20260507230218 16 225 6.4 6.4 0.00 0.84 0.84 34 1008.2
20260507225222 17 135 4.8 6.4 0.00 0.86 0.84 34 1008.1
20260507224224 18 270 6.4 9.7 0.00 0.86 0.84 32 1007.9
20260507223226 -17 321 4.8 4.8 0.00 0.86 0.84 1007.8
20260507222223 18 285 6.4 8.0 0.00 0.86 0.84 29 1007.8
20260507221220 18 244 8.0 12.9 0.00 0.86 0.84 30 1007.7
20260507220216 19 360 4.8 8.0 0.00 0.86 0.84 30 1007.5
20260507215238 20 256 3.2 4.8 0.00 0.86 0.84 33 1007.5
20260507214220 21 230 6.4 8.0 0.00 0.86 0.84 29 1007.4
20260507213223 20 212 8.0 11.3 0.00 0.86 0.84 29 1007.3
20260507212226 20 23 4.8 4.8 0.00 0.86 0.84 29 1007.3
20260507211228 20 350 8.0 9.7 0.00 0.89 0.84 29 1007.2
20260507210230 20 250 4.8 6.4 0.00 0.89 0.84 28 1007.0
20260507205215 21 250 4.8 6.4 0.00 0.89 0.84 30 1007.1
20260507204217 21 248 6.4 8.0 0.00 0.89 0.84 28 1007.1
20260507203221 20 338 9.7 11.3 0.00 0.89 0.84 30 1007.0
20260507202223 20 180 4.8 6.4 0.00 0.89 0.84 32 1007.0
20260507201305 21 293 6.4 8.0 0.00 0.89 0.84 29 1007.0
20260507200227 20 8.0 9.7 0.00 0.89 0.84 28 1007.2
20260507195229 21 68 4.8 6.4 0.00 0.89 0.84 31 1007.2
20260507194226 21 45 4.8 6.4 0.00 0.89 0.84 29 1007.2
20260507193257 21 260 9.7 9.7 0.00 0.89 0.84 30 1007.4
20260507192219 21 202 4.8 4.8 0.00 0.91 0.84 33 1007.4
20260507191236 20 180 6.4 8.0 0.00 0.91 0.84 32 1007.6
20260507190224 20 191 8.0 9.7 0.00 0.91 0.84 33 1007.7
20260507185226 20 260 4.8 6.4 0.00 0.91 0.84 35 1007.8
20260507184229 20 228 6.4 8.0 0.00 0.91 0.84 33 1008.0
20260507183231 20 352 6.4 6.4 0.00 0.91 0.84 34 1008.0
20260507182216 20 281 6.4 8.0 0.00 0.91 0.84 33 1008.0
20260507181239 20 259 6.4 8.0 0.00 0.91 0.84 34 1008.3
20260507180222 18 324 6.4 9.7 0.00 0.91 0.84 33 1008.3
20260507175223 18 240 4.8 6.4 0.00 0.91 0.84 34 1008.4
20260507174227 19 293 9.7 11.3 0.00 0.91 0.84 35 1008.6
20260507173228 18 279 6.4 8.0 0.00 0.91 0.84 36 1008.6
20260507172231 18 316 6.4 8.0 0.00 0.91 0.84 34 1008.6
20260507171215 18 270 8.0 9.7 0.00 0.91 0.84 38 1008.7
20260507170218 18 23 8.0 8.0 0.00 0.91 0.84 36 1008.8
20260507165220 -17 304 4.8 8.0 0.00 0.91 0.84 1009.1
20260507164222 18 313 9.7 11.3 0.00 0.91 0.84 39 1009.1
20260507163219 17 234 6.4 8.0 0.00 0.91 0.84 43 1009.2
20260507162217 17 248 4.8 4.8 0.00 0.91 0.84 48 1009.2
20260507161226 17 331 8.0 11.3 0.00 0.91 0.84 50 1009.4
20260507160247 -17 231 6.4 8.0 0.00 0.91 0.84 1009.5
20260507155230 17 251 8.0 11.3 0.00 0.91 0.84 48 1009.5
20260507154232 17 315 4.8 6.4 0.00 0.91 0.84 51 1009.7
20260507153216 16 276 6.4 9.7 0.00 0.91 0.84 52 1009.7
20260507152218 16 146 8.0 11.3 0.00 0.91 0.84 58 1009.7
20260507151301 16 270 8.0 14.5 0.00 0.91 0.84 60 1009.6
20260507150244 17 19 6.4 8.0 0.00 0.91 0.84 60 1009.7
20260507145226 16 338 6.4 8.0 0.00 0.91 0.84 65 1009.8
20260507144248 16 256 3.2 4.8 0.00 0.91 0.84 71 1009.9
20260507143230 15 270 4.8 6.4 0.00 0.91 0.84 70 1009.7
20260507142215 15 268 6.4 8.0 0.00 0.91 0.84 75 1009.7
20260507141218 14 284 9.7 12.9 0.00 0.91 0.84 75 1009.9
20260507140220 14 68 4.8 6.4 0.00 0.91 0.84 77 1009.9
20260507135223 14 338 8.0 11.3 0.00 0.91 0.84 78 1010.0
20260507134219 13 315 6.4 8.0 0.00 0.91 0.84 83 1010.0
20260507133216 13 0.0 0.0 0.00 0.91 0.84 88 1010.1
20260507132231 12 277 3.2 3.2 0.00 0.91 0.84 91 1010.1
20260507131237 11 225 3.2 4.8 0.00 0.91 0.84 91 1010.3
20260507130217 11 0.0 3.2 0.00 0.91 0.84 92 1010.2
20260507125219 11 225 3.2 3.2 0.00 0.91 0.84 93 1010.1
20260507124222 11 0.0 0.0 0.00 0.91 0.84 95 1009.9
20260507123224 10 270 4.8 6.4 0.03 0.91 0.84 96 1010.1
20260507122227 10 1.6 3.2 0.03 0.91 0.84 97 1010.1
20260507121231 10 0.0 0.0 0.05 0.91 0.84 99 1009.9
20260507120233 10 203 1.6 4.8 0.08 0.91 0.84 99 1010.1
20260507115216 10 0.0 0.0 0.08 0.91 0.84 99 1010.2
20260507114219 10 0.0 0.0 0.10 0.91 0.84 99 1009.8
20260507113221 10 0.0 0.0 0.10 0.89 0.81 99 1009.7
20260507112223 9 0.0 0.0 0.10 0.89 0.81 99 1009.7
20260507111226 9 0.0 0.0 0.08 0.86 0.79 99 1009.8
20260507110303 9 0.0 0.0 0.05 0.84 0.76 99 1010.3
20260507105221 9 296 1.6 3.2 0.05 0.84 0.76 99 1010.0
20260507104215 9 0.0 0.0 0.05 0.81 0.74 99 1009.4
20260507103218 9 339 3.2 4.8 0.03 0.79 0.71 99 1009.1
20260507102220 9 0.0 0.0 0.03 0.79 0.71 99 1009.1
20260507101222 9 315 4.8 6.4 0.03 0.79 0.71 99 1009.0
20260507100225 10 0.0 0.0 0.05 0.79 0.71 99
20260507095228 10 0.0 0.0 0.05 0.79 0.71 99 1009.5
20260507094250 10 1.6 3.2 0.05 0.76 0.69 98 1009.2